www.pogodaiklimat.ru

Погода и климат >> Архив погоды >> Россия >> Дагестан >> Махачкала


АРХИВ ПОГОДЫ в Махачкале

Время (UTC), дата Ветер
(напр.,м/с)
 
Видим.   Явления Облачность Т
(С)
Тd
(С)
f
(%)
Тe
(С)
Тes
(С)
Комфортность P
(гПа)
Po
(гПа)
Тmin
(С)
Tmax
(С)
R
(мм)
R24
(мм)
S
(см)
03 15.09 СЗ 1 20 км ясно +19.9 +15.5 76 +23 +23 комфорт 1015.6 1017.7 +19.0
06 15.09 В 3 10 км ясно +26.2 +20.4 70 +32 +38 очень
душно
1015.9 1017.9
09 15.09 В 5 10 км ясно +26.4 +22.1 77 +34 +41 очень
душно
1014.5 1016.6
12 15.09 В 5-11
{11}
10 км ясно +25.9 +21.9 79 +33 +36 очень
душно
1012.5 1014.6
15 15.09 ЮВ 5-11
{12}
10 км ясно +24.8 +21.0 79 +31 +31 очень
душно
1012.0 1014.0 +26.9
18 15.09 ЮВ 3
{11}
10 км ясно +23.9 +19.8 78 +29 +29 душно 1013.0 1015.1
21 15.09 В 2 н/о н/о +23.5 +18.4 73 +28 +28 душно 1013.2 1015.3
00 16.09 В 2 10 км ясно +22.7 +18.5 77 +28 +28 душно 1013.4 1015.5
03 16.09 З 2 10 км ясно +19.6 +17.0 85 +22 +22 комфорт 1015.0 1017.1 +19.5
06 16.09 С 1 10 км ясно +26.1 +20.0 69 +32 +40 очень
душно
1017.0 1019.1
09 16.09 В 3 10 км ясно +27.6 +21.3 69 +35 +45 очень
душно
1017.1 1019.2
12 16.09 В 4 10 км ясно +26.5 +21.3 73 +34 +37 очень
душно
1016.7 1018.8
15 16.09 В 3 10 км ясно +24.6 +21.4 82 +31 +31 очень
душно
1016.7 1018.8 +28.0
18 16.09 ЮВ 3 10 км ясно +24.2 +21.1 83 +31 +31 очень
душно
1017.6 1019.7
21 16.09 ЮВ 3 10 км ясно +23.5 +20.9 85 +29 +29 душно 1017.4 1019.5
00 17.09 ЮВ 3 10 км ясно +23.8 +20.5 82 +30 +30 очень
душно
1016.8 1018.9
03 17.09 ЮВ 4 10 км ясно +23.0 +19.9 83 +30 +30 очень
душно
1017.5 1019.6 +22.9
06 17.09 ЮВ 6-11
{11}
20 км 3/0
[Ci fib]
+25.9 +19.3 67 +31 +34 очень
душно
1018.6 1020.6
09 17.09 В 5
{11}
20 км ясно +26.4 +20.9 72 +33 +39 очень
душно
1017.8 1019.8
12 17.09 В 5-11
{11}
20 км ясно +26.2 +20.6 71 +33 +35 очень
душно
1017.1 1019.1
15 17.09 ЮВ 5
{11}
20 км ясно +24.9 +20.7 78 +31 +31 очень
душно
1016.7 1018.8 +27.0
18 17.09 ЮВ 4
{12}
20 км ясно +23.7 +20.7 83 +30 +30 очень
душно
1016.8 1018.9
21 17.09 ЮВ 5
{10}
20 км ясно +22.8 +19.5 82 +29 +29 очень
душно
1016.2 1018.3
00 18.09 ЮВ 5 20 км ясно +23.2 +19.0 77 +29 +29 душно 1014.9 1017.0
03 18.09 ЮВ 6-11
{12}
20 км ясно +22.8 +17.5 72 +28 +28 душно 1014.6 1016.7 +22.5
06 18.09 ЮВ 7-14
{15}
20 км ясно +26.1 +17.2 58 +30 +32 душно 1014.7 1016.7
09 18.09 В 6-14
{16}
20 км ясно +26.6 +18.3 60 +31 +36 душно 1013.4 1015.5
12 18.09 ЮВ 7-16
{16}
20 км ясно +26.4 +19.3 65 +32 +33 очень
душно
1012.3 1014.4
15 18.09 ЮВ 6-13
{16}
20 км ясно +25.4 +19.9 72 +31 +31 очень
душно
1012.0 1014.0 +27.7
18 18.09 ЮВ 4
{13}
20 км ясно +24.7 +19.6 73 +30 +30 очень
душно
1012.3 1014.4
21 18.09 ЮВ 1 н/о н/о +23.6 +19.3 77 +29 +29 душно 1011.8 1013.9
00 19.09 З 1 20 км ясно +18.9 +14.9 78 +21 +21 комфорт 1011.6 1013.8
03 19.09 СЗ 1 20 км ясно +16.8 +14.0 84 +18 +18 по сезону 1012.8 1014.9 +16.7
06 19.09 В 1 10 км ясно +26.0 +16.6 56 +30 +37 душно 1013.6 1015.7
09 19.09 ЮВ 3 10 км ясно +27.3 +18.5 59 +32 +42 очень
душно
1013.3 1015.3
12 19.09 В 2 10 км ясно +26.9 +19.9 66 +33 +38 очень
душно
1012.4 1014.4
15 19.09 ЮВ 3 10 км ясно +24.4 +20.1 77 +30 +30 очень
душно
1012.6 1014.7 +27.8
18 19.09 штиль 0 10 км 4/0
[Ci fib]
+22.6 +19.2 81 +29 +29 очень
душно
1013.0 1015.1
21 19.09 З 1 10 км 3/0
[Ci fib]
+20.5 +17.7 84 +25 +25 комфорт 1012.7 1014.8
00 20.09 штиль 0 10 км ясно +19.1 +17.4 90 +21 +21 комфорт 1012.4 1014.5
03 20.09 ЮЗ 1 10 км ясно +19.1 +16.3 84 +22 +22 комфорт 1013.0 1015.1 +18.6
06 20.09 СЗ 1 10 км ясно +27.9 +16.1 49 +31 +39 душно 1014.0 1016.1
09 20.09 В 2 10 км ясно +28.4 +21.1 65 +36 +47 очень
душно
1013.7 1015.7
12 20.09 В 3 10 км ясно +26.8 +20.8 70 +34 +38 очень
душно
1013.1 1015.2
15 20.09 В 2 10 км ясно +24.9 +20.0 74 +30 +30 душно 1013.2 1015.3
18 20.09 ЮВ 2 10 км ясно +24.0 +19.4 75 +29 +29 душно 1013.8 1015.8
21 20.09 ЮВ 3 10 км ясно +23.8 +19.7 78 +29 +29 душно 1013.2 1015.3
00 21.09 ЮВ 2 10 км ясно +23.4 +18.4 74 +30 +30 очень
душно
1012.7 1014.8
03 21.09 ЮВ 3 н/о н/о +23.2 +18.1 73 +29 +29 душно 1013.1 1015.2 +22.9
06 21.09 В 3 20 км ясно +26.5 +20.3 69 +33 +38 очень
душно
1013.3 1015.3
09 21.09 В 4 20 км 6/0
[Ac trans Ci fib]
+26.7 +21.2 72 +27 +33 жарко 1012.4 1014.5
12 21.09 В 4 20 км ясно +25.8 +21.2 76 +33 +36 очень
душно
1012.1 1014.1
15 21.09 В 4 20 км 4/0
[Ci fib]
+24.6 +20.9 80 +31 +31 очень
душно
1011.8 1013.9 +26.9
18 21.09 ЮВ 6-10
{11}
20 км 3/0
[Ci fib]
+23.9 +19.4 76 +29 +29 душно 1011.6 1013.7
21 21.09 ЮВ 6
{11}
20 км ясно +23.7 +17.6 69 +28 +28 душно 1011.1 1013.2
00 22.09 ЮВ 6-11
{11}
20 км 4/0
[Ac trans Ci fib]
+23.2 +19.6 80 +30 +30 очень
душно
1010.3 1012.4

 

Местоположение метеостанции Махачкала (Дагестан, Россия): широта 43.02 долгота 47.48 высота над уровнем моря -19 м.

В архиве по умолчанию представлена погода в Махачкале за последнюю неделю. Архивные данные за месяц целиком и за предыдущие месяцы, начиная с января 2011 года, Вы можете получить, выбрав интересующий диапазон дат из раскрывающегося списка и нажав кнопку "Ввод!".

Внимание! Время в таблицах - всемирное. Для получения местного времени необходимо прибавить поправку, которая в Махачкале равна 3 ч.

Смотрите также архив погоды в соседних городах и на ближайших метеорологических станциях:

Погода в Буйнакске (Дагестан, Россия) (37 км)
Погода в Сергокале (Дагестан, Россия) (65 км)
Погода в Изберге (Дагестан, Россия) (65 км)
Погода в Куппе (Дагестан, Россия) (73 км)
Погода в Хасавюрте (Дагестан, Россия) (77 км)
Погода в Гунибе (Дагестан, Россия) (81 км)
Погода в Хунзахе (Дагестан, Россия) (81 км)
Погода в Бабаюрте (Дагестан, Россия) (86 км)
Погода в Кумухе (Дагестан, Россия) (104 км)
Погода в Шелковской (Чечня, Россия) (106 км)

Пояснения к столбцам:

Ветер - указаны скорость ветра в м/с - средняя за 10 мин, порывы в срок и между сроками (в фигурных скобках) и направление, откуда дует ветер: С - северный, СВ - северо-восточный, В - восточный, ЮВ - юго-восточный, Ю - южный, ЮЗ - юго-западный, З - западный, СЗ - северо-западный.
Видимость - горизонтальная дальность видимости в метрах или километрах. При видимости от 1 до 10 км при отсутствии осадков обычно наблюдается дымка, при ухудшении видимости до 1 км и менее - туман. В сухую погоду видимость может ухудшаться дымом, пылью или мглою.
Явления - указаны атмосферные явления, наблюдавшиеся в срок или в последний час перед сроком; фигурными скобками обозначены явления, наблюдавшиеся между сроками (за 1-3 часа до срока); квадратными скобками обозначены град или гололедные отложения с указанием их диаметра в мм.
Облачность - указаны через наклонную черту общая и нижняя облачность в баллах и высота нижней границы облаков в метрах; квадратными скобками обозначены формы облаков: Ci - перистые, Cs - перисто-слоистые, Cc - перисто-кучевые, Ac - высококучевые, As - высокослоистые, Sc - слоисто-кучевые, Ns - слоисто-дождевые, Cu - кучевые, Cb - кучево-дождевые. Подробнее классификацию облаков см. в Атласе облаков (PDF).
T - Температура воздуха - температура, измеренная на высоте 2 м над землей.
Td - Температура точки росы - температура, при понижении до которой содержащийся в воздухе водяной пар достигнет насыщения.
f - Относительная влажность воздуха - влажноcть воздуха, измеренная на высоте 2 м над землей.
Te - Эффективная температура - температура, которую ощущает одетый по сезону человек в тени. Характеристика душности погоды. При расчете учитывается влияние влажности воздуха и скорости ветра на теплоощущения человека.
Tes - Эффективная температура на солнце - температура, которую ощущает человек, с поправкой на солнечный нагрев. Характеристика знойности погоды. Зависит от высоты солнца над горизонтом, облачности и скорости ветра. Ночью, в пасмурную погоду, а также при ветре 12 м/с и более поправка равна нулю.
P - Атмосферное давление - приведенное к уровню моря атмосферное давление.
Po - Атмосферное давление - измеренное на уровне метеостанции атмосферное давление.
Tmin - Минимальная температура - минимум температуры воздуха на высоте 2 м над землей.
Tmax - Максимальная температура - максимум температуры воздуха на высоте 2 м над землей.
R - Количество осадков - Количество выпавших осадков за период времени, мм. При наведении курсора мыши на число - период времени, за который выпало указанное количество осадков.
R24 - Количество осадков - Количество выпавших осадков за 24 часа, мм.
S - Снежный покров - Высота снежного покрова, см. При наведении курсора мыши на число - состояние снежного покрова и степень покрытия местности в баллах.